Список аэропортов
Фактическая погода:

18 октября, 10:00
Температура: +20°C (+20.0*)
Ветер: сев.-восточный 4 м/с
Давление: *764 мм
несуществ. обл.
Время (МСК)Темп. СВетерВлажностьДавлениеОблачностьОсадки
09:00+19С, 1 м/с63%1019 гПаясно
10:00+21З, 1 м/с62%1018 гПаясно
11:00+22ЮЗ, 2 м/с65%1018 гПаясно
12:00+22ЮЗ, 2 м/с66%1018 гПаясно
13:00+22ЮЗ, 3 м/с67%1018 гПаясно
14:00+22ЮЗ, 3 м/с68%1017 гПаясно
15:00+22З, 3 м/с70%1017 гПаясно
16:00+22З, 3 м/с72%1016 гПаясно
17:00+21З, 2 м/с78%1017 гПаясно
18:00+19З, 2 м/с89%1017 гПаясно
19:00+18С, 2 м/с90%1017 гПаясно
20:00+17С, 2 м/с90%1017 гПаясно
21:00+17СВ, 2 м/с88%1018 гПаясно
22:00+16С, 2 м/с87%1018 гПаясно
23:00+16С, 2 м/с86%1018 гПаясно
19 октября
00:00+16С, 3 м/с82%1018 гПаясно
01:00+16С, 3 м/с77%1018 гПаясно
02:00+16С, 3 м/с74%1018 гПаясно
03:00+16С, 3 м/с72%1018 гПаясно
04:00+16С, 3 м/с66%1018 гПаясно
05:00+16С, 3 м/с60%1019 гПаясно
06:00+16С, 4 м/с56%1019 гПаясно
07:00+16С, 3 м/с56%1019 гПаясно
08:00+17С, 3 м/с57%1018 гПаясно
09:00+20С, 2 м/с55%1018 гПаясно
10:00+22Ю, 1 м/с49%1017 гПаясно
11:00+23ЮЗ, 2 м/с51%1017 гПаясно
12:00+23ЮЗ, 2 м/с55%1016 гПаясно
13:00+23Ю, 2 м/с59%1016 гПаясно
14:00+23ЮЗ, 2 м/с61%1016 гПаясно
15:00+23ЮЗ, 2 м/с62%1016 гПаясно
16:00+22ЮЗ, 2 м/с67%1016 гПаясно
17:00+21З, 2 м/с75%1016 гПаясно
18:00+19З, 2 м/с87%1017 гПаясно
19:00+18СЗ, 1 м/с91%1017 гПаясно
20:00+17С, 2 м/с89%1017 гПаясно
21:00+17С, 2 м/с79%1017 гПаясно
22:00+18С, 3 м/с67%1017 гПаясно
23:00+18С, 3 м/с60%1017 гПаясно
20 октября
00:00+17С, 3 м/с62%1017 гПаясно
01:00+17С, 2 м/с64%1017 гПаясно
02:00+16С, 3 м/с65%1017 гПаясно
03:00+17С, 3 м/с64%1017 гПаясно
04:00+17С, 3 м/с61%1017 гПаясно
05:00+16С, 3 м/с57%1017 гПаясно
06:00+16С, 3 м/с57%1017 гПаясно
07:00+16С, 3 м/с61%1017 гПаясно
08:00+17С, 2 м/с65%1017 гПас прояснениями
09:00+19С, 1 м/с65%1016 гПаоблачно